www.pogodaiklimat.ru
ПОГОДА в Форт Кэмпбелл
Время
и дата
18:55 24.05
19:55 24.05
20:55 24.05
21:55 24.05
22:55 24.05
23:21 24.05
23:30 24.05
23:36 24.05
23:51 24.05
23:55 24.05
00:55 25.05
01:40 25.05
01:55 25.05
02:02 25.05
02:09 25.05
02:22 25.05
02:24 25.05
02:55 25.05
03:55 25.05
04:10 25.05
04:25 25.05
04:55 25.05
05:25 25.05
05:40 25.05
05:55 25.05
06:10 25.05
06:55 25.05
07:10 25.05
07:55 25.05
08:55 25.05
09:55 25.05
10:55 25.05
11:55 25.05
12:55 25.05
13:55 25.05
14:55 25.05
15:55 25.05
16:55 25.05
17:55 25.05
18:55 25.05
19:55 25.05
20:55 25.05
21:55 25.05
22:55 25.05
23:55 25.05
00:55 26.05
01:55 26.05
02:55 26.05
Ветер
(напр.,м/с)
Видим. Явления Облачность Т
(С)
Тd
(С)
f
(%)
Тe
(С)
Тes
(С)
Комфортность P
(гПа)
Po
(гПа)
Тmin
(С)
Tmax
(С)
R
(мм)
R24
(мм)
S
(см)
ЮВ 2 16 км ясно +23.4 +17.6 70 +29 +30 душно 1009.2 988.7
ЮВ 2 16 км ясно +22.1 +17.0 73 +27 +27 душно 1009.9 989.4
В 2 16 км ясно +21.7 +17.9 79 +26 +26 душно 1010.3 989.7
ЮВ 3 16 км ясно +21.3 +18.1 82 +26 +26 душно 1009.2 988.7
ЮВ 3 16 км 8/8 1800 м +21.5 +18.5 83 +26 +26 душно 1009.9 989.4
ЮВ 3 16 км слабая морось 8/8 1350 m
[St]
+22.0 +19.0 83 +27 +27 душно 1009.9 989.4
В 3 16 км гроза 8/8 1440 m
[Cb]
+21.0 +19.0 88 +26 +26 душно 1009.6 989.0
В 4 16 км гроза 8/8 1440 m
[Cb]
+21.0 +18.0 83 +25 +25 комфорт 1009.6 989.0
ЮВ 4 16 км гроза 8/8 1500 m
[Cb]
+21.0 +19.0 88 +26 +26 душно 1009.2 988.7
ЮВ 4 16 км гроза 8/8 1140 m
[Cb]
+21.2 +18.6 85 +26 +26 душно 1009.2 988.7 +21.1 +24.9
В 3 16 км 2/0 3000 m
[Ac]
+20.9 +18.5 86 +26 +26 душно 1008.9 988.4
СВ 2 16 км 8/8 +20.0 +19.0 94 +24 +24 комфорт 1010.0 989.4
В 3 16 км 10/10 +20.7 +18.6 88 +25 +25 комфорт 1010.0 989.4
СВ 4 16 км слабая морось 10/10
[St]
+21.0 +19.0 88 +26 +26 душно 1010.0 989.4
СВ 3 16 км гроза, слабая морось 8/8 510 m
[Cb]
+21.0 +19.0 88 +26 +26 душно 1010.0 989.4
ЮВ 3 16 км гроза 5/5 540 m
[Cb]
+21.0 +19.0 88 +26 +26 душно 1009.6 989.0
ЮВ 3 16 км гроза 5/5 540 m
[Cb]
+21.0 +19.0 88 +26 +26 душно 1009.6 989.0
ЮВ 3 16 км 5/5 720 м +20.7 +19.2 91 +25 +25 комфорт 1009.9 989.4 0.3
ЮВ 4 16 км 8/8 +21.0 +19.5 91 +26 +26 душно 1009.2 988.7
ЮВ 4 16 км 5/5 870 м +21.0 +20.0 94 +26 +26 душно 1008.9 988.4
ЮВ 5 16 км 8/8 810 м +21.0 +20.0 94 +26 +26 душно 1009.2 988.7
ЮЗ 3 16 км 10/10 630 м +20.9 +19.4 91 +26 +26 душно 1009.9 989.4
В 3 16 км 2/2 180 м +21.0 +19.0 88 +26 +26 душно 1009.9 989.4
СВ 3 16 км 8/8 +21.0 +19.0 88 +26 +26 душно 1010.2 989.7
ЮВ 4 16 км 5/5 600 м +20.8 +19.4 92 +25 +25 комфорт 1010.2 989.7 +19.8 +21.3 0.3 0.5
В 5 16 км 8/8 630 м +21.0 +19.0 88 +26 +26 душно 1010.2 989.7
ЮВ 5 16 км 8/8 690 м +21.8 +19.3 86 +27 +27 душно 1010.6 990.0
ЮВ 4 16 км 2/2 720 м +22.0 +19.0 83 +27 +30 душно 1010.6 990.0
ЮВ 3 16 км ясно +22.5 +19.8 85 +29 +32 очень
душно
1010.6 990.0
Ю 3 16 км 2/2 390 м +24.9 +20.6 77 +31 +37 очень
душно
1011.3 990.7
ЮЗ 4 16 км 5/5 660 m
[Ac]
+26.4 +20.2 69 +33 +37 очень
душно
1011.6 991.0
ЮЗ 4 16 км 8/5 1050 m
[Ac]
+27.0 +19.8 65 +33 +36 очень
душно
1011.2 990.7
З 4 16 км 8/5 1440 m
[Ac]
+27.6 +19.9 63 +34 +38 очень
душно
1011.2 990.7 +20.8 +27.6
З 5 16 км 8/2 1650 m
[Ac Ci]
+28.3 +20.5 63 +35 +41 очень
душно
1011.2 990.7
ЮЗ 3 16 км 5/2 1020 m
[Ac]
+27.9 +20.4 64 +35 +44 очень
душно
1010.9 990.4
ЮЗ 4 16 км ясно +29.1 +20.5 60 +36 +47 очень
душно
1010.5 990.0
ЮЗ 3 8 км мгла ясно +28.9 +20.8 62 +36 +46 очень
душно
1010.2 989.7
ЮЗ 3 16 км ясно +28.2 +20.7 64 +35 +41 очень
душно
1009.5 989.0
ЮЗ 2 16 км ясно +27.6 +21.4 69 +35 +38 очень
душно
1009.2 988.7 +27.3 +29.2
штиль 0 16 км ясно +26.8 +21.1 71 +34 +35 очень
душно
1009.5 989.0
Ю 2 16 км ясно +25.4 +20.8 76 +32 +32 очень
душно
1010.5 990.0
штиль 0 16 км ясно +24.0 +20.9 83 +30 +30 очень
душно
1011.2 990.7
штиль 0 16 км ясно +23.5 +20.8 85 +29 +29 душно 1011.2 990.7
В 2 16 км ясно +22.6 +20.7 89 +29 +29 очень
душно
1010.5 990.0
В 2 16 км ясно +22.6 +20.7 89 +29 +29 очень
душно
1009.8 989.4 +22.2 +27.6
ЮВ 2 16 км ясно +22.6 +20.5 88 +29 +29 очень
душно
1008.8 988.4
ЮВ 2 16 км 8/8 1650 м +22.9 +20.0 84 +30 +30 очень
душно
1008.8 988.4
ЮВ 4 16 км 2/2 1260 м +23.1 +20.2 84 +30 +30 очень
душно
1008.1 987.7
Местоположение метеостанции Campbell Army Airfield: широта 36.6667 долгота -87.5000 высота над уровнем моря 174 м.
В архиве по умолчанию представлена погода в Форт Кэмпбелл за последние 1-2 суток. Обновление информации о фактической погоде в базе происходит ежечасно! Архивные данные за месяц целиком и за предыдущие месяцы Вы можете получить, выбрав интересующий диапазон дат из раскрывающегося списка и нажав кнопку "Ввод!".
Внимание! Архив погоды МЕТАР в базе сайта по станциям, не включенным в климатический монитор, хранится не более 60 дней. Нет смысла пытаться выбрать более раннюю дату.
*Определитесь, кто Вы:
Внимание! Время в таблицах - местное (без учета летнего времени). Для получения всемирного времени необходимо вычесть поправку, которая равна -6 ч.
Смотрите также архив погоды в соседних городах и на ближайших метеорологических станциях:
Партнеры нашего сайта:      
Пояснения к столбцам:
  • Ветер - указаны скорость ветра в м/с - средняя за 10 мин, порывы в срок и между сроками (в фигурных скобках) и направление, откуда дует ветер: С - северный,
  • СВ - северо-восточный, В - восточный, ЮВ - юго-восточный, Ю - южный, ЮЗ - юго-западный, З - западный, СЗ - северо-западный.
  • Видимость - горизонтальная дальность видимости в метрах или километрах. При видимости от 1 до 10 км при отсутствии осадков обычно наблюдается дымка, при ухудшении видимости до 1 км и менее - туман. В сухую погоду видимость может ухудшаться дымом, пылью или мглою.
  • Явления - указаны атмосферные явления, наблюдавшиеся в срок или в последний час перед сроком; фигурными скобками обозначены явления, наблюдавшиеся между сроками (за 1-3 часа до срока); квадратными скобками обозначены град или гололедные отложения с указанием их диаметра в мм.
  • Облачность - указаны через наклонную черту общая и нижняя облачность в баллах и высота нижней границы облаков в метрах; квадратными скобками обозначены формы облаков: Ci - перистые, Cs - перисто-слоистые, Cc - перисто-кучевые, Ac - высококучевые, As - высокослоистые, Sc - слоисто-кучевые, Ns - слоисто-дождевые, Cu - кучевые, Cb - кучево-дождевые. Подробнее классификацию облаков см. в Атласе облаков (PDF).
  • T - Температура воздуха - температура, измеренная на высоте 2 м над землей.
  • Td - Температура точки росы - температура, при понижении до которой содержащийся в воздухе водяной пар достигнет насыщения.
  • f - Относительная влажность воздуха - влажноcть воздуха, измеренная на высоте 2 м над землей.
  • Te - Эффективная температура - температура, которую ощущает одетый по сезону человек в тени. Характеристика душности погоды. При расчете учитывается влияние влажности воздуха и скорости ветра на теплоощущения человека.
  • Tes - Эффективная температура на солнце - температура, которую ощущает человек, с поправкой на солнечный нагрев. Характеристика знойности погоды. Зависит от высоты солнца над горизонтом, облачности и скорости ветра. Ночью, в пасмурную погоду, а также при ветре 12 м/с и более поправка равна нулю.
  • P - Атмосферное давление - приведенное к уровню моря атмосферное давление.
  • Po - Атмосферное давление - измеренное на уровне метеостанции атмосферное давление.
  • Tmin - Минимальная температура - минимум температуры воздуха на высоте 2 м над землей.
  • Tmax - Максимальная температура - максимум температуры воздуха на высоте 2 м над землей.
  • R - Количество осадков - Количество выпавших осадков за период времени, мм. При наведении курсора мыши на число - период времени, за который выпало указанное количество осадков.
  • R24 - Количество осадков - Количество выпавших осадков за 24 часа, мм.
  • S - Снежный покров - Высота снежного покрова, см. При наведении курсора мыши на число - состояние снежного покрова и степень покрытия местности в баллах.